Theta_e
299 297 294 297 298 296 294 293 293 296 297 296 297 297 299 303 303 302 304 305 306 307 309 308 307 309 312 315 314 315 315 315 314 308 306 306 304 301 301 305 301 301 301 301
296 293 298 298 297 295 294 293 293 296 296 295 296 295 299 301 302 304 305 306 307 308 306 304 305 306 308 311 312 313 313 312 313 313 310 305 301 298 297 298 302 300 299 297
293 295 297 296 293 292 293 292 293 292 295 295 293 294 297 300 301 303 304 305 306 307 305 304 303 304 307 308 309 310 312 311 312 313 306 300 294 293 293 293 293 297 295 296
295 297 294 293 293 294 290 295 294 292 292 289 294 287 296 300 301 301 304 305 305 305 305 304 303 303 305 307 309 309 310 309 310 307 306 303 301 298 299 295 294 292 292 291
294 293 293 292 293 295 293 295 294 293 292 290 292 289 295 297 297 301 305 305 303 303 302 302 301 303 304 306 306 308 309 307 304 303 303 303 302 301 298 296 293 290 290 289
294 296 296 296 294 296 294 293 292 291 291 286 292 291 293 297 299 302 303 301 301 301 300 299 299 301 302 305 304 307 307 306 302 301 300 301 302 296 295 294 290 288 287 287
292 293 295 295 292 294 294 293 287 286 284 285 290 289 294 299 300 301 301 301 302 300 299 298 298 299 301 302 303 304 305 303 304 304 302 301 298 296 295 292 293 290 287 285
289 287 294 296 296 293 291 294 289 284 284 288 287 286 294 300 302 301 300 300 300 300 298 297 298 299 300 300 301 303 303 302 302 301 300 298 295 294 294 294 293 289 289 288
290 289 295 294 296 298 292 288 296 290 282 285 291 295 297 299 299 299 299 299 300 298 296 296 296 298 299 299 300 302 302 301 301 299 296 294 293 293 292 289 288 287 286 283
294 289 291 293 296 295 295 297 288 290 284 283 289 290 292 296 297 298 298 300 298 296 296 296 296 297 299 299 300 301 301 300 300 298 295 293 292 291 290 288 286 284 283 282
296 292 289 291 291 292 291 290 290 292 290 286 285 290 297 299 298 298 298 298 298 296 296 296 296 297 298 300 300 300 299 299 298 296 295 292 291 289 287 287 285 284 282 281
295 292 287 289 292 294 294 293 293 288 285 287 286 290 296 297 299 299 298 297 297 297 297 296 296 296 296 297 299 298 298 297 296 295 293 291 290 287 286 285 284 283 282 281
295 288 284 285 289 293 289 292 294 294 290 287 286 290 292 293 294 295 297 296 295 294 294 294 294 294 295 296 296 297 296 296 295 293 292 290 288 287 286 285 283 282 280 279
297 287 286 286 288 291 287 289 291 292 287 288 288 292 292 293 294 295 295 296 296 294 294 295 294 294 294 295 295 295 295 295 293 292 291 289 288 287 286 284 282 281 280 279
292 284 286 291 293 291 291 291 290 288 290 286 292 292 296 298 297 299 298 296 294 293 293 294 295 295 294 293 294 294 294 294 292 291 290 289 289 287 284 282 281 280 279 279
292 285 286 286 288 288 286 291 292 293 292 291 292 292 300 301 303 302 298 298 297 295 295 295 294 292 291 291 292 292 293 292 291 290 289 288 287 284 282 281 280 279 278 278
287 286 285 283 288 287 283 288 290 292 294 294 289 295 300 299 298 299 300 301 300 300 299 298 296 294 293 292 291 291 292 291 290 289 288 286 285 283 281 280 279 278 278 278
286 285 285 283 284 277 288 292 294 293 295 295 294 296 297 299 300 301 302 302 300 300 300 300 300 298 296 294 292 291 291 289 288 287 286 285 284 283 281 280 279 278 278 277
290 286 283 281 281 285 288 289 290 290 290 296 295 297 300 300 298 298 300 300 301 302 301 300 300 299 297 292 291 289 288 288 287 286 285 285 284 282 281 279 279 279 278 278
287 287 284 283 279 277 288 287 289 294 286 288 295 296 297 298 291 297 296 295 296 294 293 292 294 292 291 290 289 287 286 286 285 286 285 284 283 281 280 281 280 280 280 280
280 282 279 280 280 284 290 288 289 283 285 288 290 290 290 292 296 296 292 292 291 291 291 290 289 288 288 286 286 285 285 284 286 286 284 283 282 281 281 281 281 281 280 280
281 280 281 282 279 277 287 288 286 288 289 286 288 288 288 291 292 292 292 291 290 290 289 286 286 284 284 285 285 284 284 285 285 284 283 282 281 282 281 280 280 280 280 279
278 283 282 283 283 289 289 289 292 288 288 289 288 288 286 287 288 290 289 289 288 286 286 285 284 283 283 284 285 283 284 284 283 282 280 280 281 281 281 280 280 280 280 279
281 284 282 282 284 286 288 291 290 290 289 289 287 286 284 285 286 285 286 285 285 284 284 282 282 281 281 282 282 284 283 283 282 281 280 281 280 280 280 280 280 280 279 279
282 282 281 281 283 286 288 289 290 289 288 286 286 284 284 284 284 284 284 284 283 282 280 280 281 280 281 280 281 281 282 282 282 281 280 281 281 281 281 281 281 280 282 281
283 280 278 278 284 284 285 289 288 286 287 287 286 285 283 283 284 284 282 283 281 282 279 279 278 278 279 279 280 280 281 282 280 279 279 280 281 280 280 281 281 283 283 283
Wind_Speed
2 8 12 18 17 3 2 3 8 5 2 5 14 18 21 17 16 19 19 21 21 21 12 10 12 15 15 15 15 16 14 13 11 6 4 3 3 2 2 3 6 5 6 6
5 13 16 1 6 7 7 11 14 11 4 5 12 17 20 21 21 20 20 21 23 18 7 10 14 17 19 18 17 17 16 15 13 9 5 3 4 2 2 4 6 8 7 6
16 4 6 10 6 10 12 15 10 9 5 6 8 15 12 14 13 20 24 25 21 16 12 12 13 17 17 18 19 17 16 15 13 12 8 6 6 4 3 4 4 6 7 10
11 5 5 9 10 12 15 11 9 6 3 8 2 11 12 11 17 11 17 14 12 11 10 10 11 14 17 16 13 15 15 14 13 14 11 12 7 6 5 6 5 6 8 9
6 10 10 11 8 14 3 5 7 3 7 6 10 9 5 4 11 17 18 5 3 1 3 7 9 10 11 13 13 14 15 14 12 12 10 9 8 4 7 6 9 8 7 6
1 2 4 2 4 5 12 7 5 2 2 11 12 11 12 10 14 13 7 3 5 2 2 1 2 5 9 11 12 14 15 15 12 11 11 10 9 9 8 9 8 5 5 6
4 6 2 3 8 3 4 9 4 5 6 11 3 10 18 8 7 8 7 5 2 1 1 2 4 6 8 11 12 12 14 14 14 14 12 12 11 11 11 11 9 11 8 5
15 13 16 13 13 10 12 10 8 7 6 7 3 11 7 13 11 9 7 6 5 6 4 4 4 6 8 9 11 13 14 14 14 13 12 10 10 6 5 10 8 7 8 8
9 11 3 3 5 12 9 12 6 7 3 5 11 18 10 12 15 8 10 7 7 4 4 4 5 6 7 8 11 13 14 14 13 12 10 10 9 10 10 10 9 7 9 7
4 8 2 5 3 3 9 10 6 5 6 10 13 11 13 6 14 11 10 7 3 3 4 5 6 8 7 9 11 13 13 14 13 12 11 10 10 10 10 9 9 10 10 11
9 6 4 5 13 16 7 8 5 3 5 6 14 13 5 11 7 10 8 5 6 7 7 7 7 8 9 10 12 12 13 15 15 15 13 12 11 11 10 10 11 11 11 12
9 4 9 10 1 3 10 14 18 8 7 5 3 23 4 5 6 9 8 6 7 7 8 8 8 9 9 11 12 13 13 14 13 13 13 13 13 13 12 11 11 11 11 10
5 4 3 4 2 3 7 10 16 14 4 12 8 17 4 2 7 4 5 6 5 7 9 8 8 9 10 11 12 13 14 14 13 13 12 12 12 13 13 14 13 13 13 12
4 6 6 6 4 5 6 7 13 18 10 10 24 20 1 4 8 7 9 9 10 11 8 8 8 9 10 12 13 14 14 14 13 13 13 13 13 14 12 10 12 13 14 14
6 2 2 14 8 5 8 14 18 17 19 11 22 22 18 10 9 12 9 7 10 12 10 12 10 11 11 12 13 13 13 13 13 14 14 14 12 11 10 11 11 11 11 11
9 5 5 6 8 11 12 17 16 24 27 27 30 29 16 7 16 18 10 12 13 13 14 13 10 9 12 14 14 13 14 15 15 15 13 11 12 12 12 12 12 12 12 12
0 3 5 7 1 4 9 20 23 22 23 22 25 28 17 12 12 14 15 15 15 12 12 12 13 14 13 14 13 16 15 14 15 14 13 13 14 13 13 13 13 13 13 13
5 2 2 3 2 11 9 4 15 21 24 17 20 25 17 14 10 13 14 10 12 14 13 13 12 12 11 11 13 12 13 14 14 13 13 13 14 13 13 13 13 14 13 15
16 7 5 6 11 11 13 6 7 11 17 23 25 27 27 22 5 21 10 13 15 14 10 8 8 9 7 10 11 11 12 13 14 14 14 14 14 14 14 15 14 12 13 13
6 12 9 7 9 8 5 4 2 4 12 7 8 19 23 9 10 14 4 2 5 4 4 7 8 5 5 7 10 11 12 12 14 14 13 12 13 13 13 13 14 13 12 12
3 3 13 13 13 6 4 4 1 9 3 7 7 8 8 7 6 5 0 2 2 4 5 4 3 4 4 7 9 9 10 12 10 10 11 12 12 13 13 13 13 13 13 12
6 7 4 5 9 14 4 2 4 1 3 3 8 6 8 9 9 8 7 7 4 4 4 3 2 1 1 4 7 8 10 9 10 11 12 12 12 10 10 14 12 12 13 12
5 5 3 5 4 5 3 9 12 4 7 6 4 5 5 9 6 8 5 4 3 2 3 3 2 1 2 4 5 6 7 9 9 9 10 11 11 11 12 13 12 10 11 10
4 3 5 1 8 13 8 10 8 6 8 9 9 7 5 6 7 9 8 5 3 2 2 2 1 3 4 6 6 4 7 8 10 10 10 10 11 10 11 9 9 10 11 11
8 6 10 11 17 10 12 12 10 8 11 8 5 5 7 7 7 6 6 8 5 4 2 3 3 3 4 3 2 5 8 9 9 8 8 9 8 10 10 9 9 10 11 13
12 16 10 11 16 11 12 14 4 6 5 7 7 6 6 7 8 4 6 6 3 4 0 1 2 2 3 5 3 4 5 8 9 8 7 7 7 8 8 8 8 16 13 18
Wind_Direction
110 204 201 212 219 233 132 210 255 241 185 221 245 261 271 276 266 263 260 258 253 249 243 223 207 203 199 199 194 193 187 184 175 155 159 169 157 149 117 133 124 126 128 148
171 229 220 187 176 205 232 252 258 280 272 230 275 263 269 265 255 253 259 258 255 263 241 205 209 201 199 196 198 195 195 186 190 185 166 144 145 134 135 144 144 139 157 160
216 198 210 193 188 201 227 234 242 260 319 225 285 268 235 266 257 255 255 255 267 268 260 230 212 206 202 201 198 198 194 190 191 185 156 123 95 94 140 158 148 158 162 167
239 186 155 191 224 209 245 211 220 243 266 273 318 286 267 266 267 250 253 245 253 253 248 255 224 210 205 206 197 198 193 192 190 179 181 177 172 171 180 168 158 165 159 168
202 181 189 206 210 185 235 142 181 185 230 305 223 267 238 228 249 255 257 239 217 201 247 234 221 215 205 196 193 195 192 190 182 182 183 183 181 163 155 156 160 163 157 143
312 43 209 231 105 170 140 101 80 92 221 256 243 228 274 205 229 247 270 186 149 333 332 217 151 172 187 187 196 194 192 187 180 178 183 187 176 170 165 168 166 158 149 160
173 210 186 165 111 85 201 165 206 225 202 258 89 215 252 294 220 243 229 181 252 158 86 226 172 173 184 184 192 191 191 187 187 188 191 189 184 183 182 170 171 171 168 172
212 222 186 184 218 174 191 197 208 240 227 280 128 236 249 235 272 233 230 251 252 254 234 215 178 175 182 185 193 191 191 188 186 183 189 183 173 169 179 186 179 173 178 177
189 234 191 224 176 178 178 217 253 271 102 280 250 257 250 232 240 236 235 238 233 191 176 167 163 176 181 188 195 196 194 192 187 181 179 178 173 174 182 167 159 150 153 135
205 260 158 154 180 208 216 146 172 213 228 242 251 264 249 229 233 226 221 206 169 153 176 155 171 180 188 188 195 198 198 199 185 183 183 180 179 179 170 162 158 152 140 136
227 240 133 138 207 181 168 200 220 232 223 250 277 265 195 238 187 188 169 171 177 191 190 182 188 187 191 193 192 197 198 197 188 187 184 177 174 171 162 167 163 155 146 148
202 188 222 202 57 305 253 216 195 200 198 241 297 266 124 202 181 166 183 184 187 200 192 183 186 184 191 198 196 197 201 202 199 193 186 183 171 167 161 165 160 154 151 151
160 201 173 164 259 286 231 215 221 236 50 212 205 263 44 102 154 197 211 224 205 216 202 185 188 196 199 200 203 204 203 203 196 189 188 184 182 181 177 170 160 157 154 154
285 168 217 257 33 113 197 222 225 213 206 216 227 250 112 217 225 208 217 218 205 214 214 216 203 209 209 208 206 205 204 201 192 186 186 187 188 188 181 170 164 161 162 159
168 263 290 267 273 231 239 211 211 240 233 221 250 242 240 234 243 237 221 201 211 231 230 233 220 215 213 214 212 210 206 199 193 191 189 191 186 183 162 161 163 159 160 158
185 220 170 252 245 258 253 252 240 217 222 227 245 252 242 245 238 248 226 226 238 234 235 238 231 222 220 216 213 205 204 197 189 191 192 180 171 171 166 165 165 162 160 156
158 195 185 251 241 254 233 237 230 235 237 228 242 246 253 251 233 227 239 247 250 250 245 242 230 225 221 210 202 204 198 184 187 185 181 175 170 171 172 167 165 168 167 158
199 221 288 276 45 251 238 182 226 229 239 237 258 267 277 262 256 241 245 260 248 251 253 247 243 241 228 212 201 198 188 185 185 183 178 175 172 172 167 167 173 170 168 169
213 206 243 249 245 286 285 196 184 178 242 233 239 254 256 268 279 265 230 225 250 270 284 278 271 260 238 204 195 179 181 181 183 184 182 175 172 169 171 174 175 173 170 172
203 220 224 224 249 260 300 27 11 75 260 10 249 250 265 273 250 272 65 289 279 291 285 290 290 278 222 188 168 173 180 183 192 185 178 169 168 168 174 176 175 177 181 176
132 175 225 231 238 249 341 346 250 187 317 341 334 314 293 260 248 306 295 257 273 288 313 312 284 262 222 163 159 174 178 196 188 170 155 167 168 171 173 171 175 177 180 182
199 188 207 220 229 238 30 8 244 163 253 344 319 318 317 304 298 289 279 273 270 299 333 346 311 308 129 162 159 171 187 175 166 155 161 167 166 166 170 171 174 180 179 182
227 218 241 213 258 196 217 220 236 219 230 207 238 285 302 308 295 302 282 242 262 8 347 359 320 199 154 165 170 171 172 157 147 155 161 164 167 171 169 173 174 175 178 186
234 138 224 149 259 260 274 258 256 242 239 237 231 210 189 263 300 299 291 263 224 183 116 344 302 262 231 180 159 146 149 155 154 161 169 163 167 169 169 175 177 181 187 192
245 175 245 268 274 279 247 250 270 265 244 251 252 230 212 187 249 240 274 281 267 278 284 160 173 274 254 246 202 146 150 159 160 160 159 162 170 173 176 188 189 195 202 199
229 242 237 251 266 272 274 276 242 265 267 235 231 265 239 237 248 212 237 239 223 238 310 244 308 176 215 212 173 137 167 162 151 148 161 170 167 178 182 190 198 214 218 216